Sacramento International, CA

1:11 AM PDT on April 29, 2017 (GMT -0700)
Sacramento International

Weather History for KSMF - May, 2013

Change the Weather History Date:

Sunday, May 12, 2013

  Actual Average Record
Temperature  
Mean Temperature 76 °F -  
Max Temperature 93 °F 79 °F 100 °F (1976)
Min Temperature 60 °F 50 °F 40 °F (1967)
Cooling Degree Days 12    
Growing Degree Days 26 (Base 50)    
Moisture  
Dew Point 51 °F    
Average Humidity 48    
Maximum Humidity 72    
Minimum Humidity 17    
Precipitation  
Precipitation 0.00 in - - ()
Sea Level Pressure  
Sea Level Pressure 30.03 in    
Wind  
Wind Speed 10 mph (South)    
Max Wind Speed 14 mph    
Max Gust Speed -    
Visibility 10 miles    
Events      
Averages and records for this station are not official NWS values.
T = Trace of Precipitation, MM = Missing Value Source: NWS Daily Summary

Daily Weather History Graph

Daily Weather History Graph

Search for Another Location

Airport or City:

Trip Planner

Search our weather history database for the weather conditions in past years. The results will help you decide how hot, cold, wet, or windy it might be!

Date:

Astronomy

May. 12, 2013 Rise Set
Actual Time 5:56 AM PDT 8:09 PM PDT
Civil Twilight 5:27 AM PDT 8:38 PM PDT
Nautical Twilight 4:50 AM PDT 9:15 PM PDT
Astronomical Twilight 4:11 AM PDT 9:55 PM PDT
Moon 7:56 AM PDT (5/12) 10:39 PM PDT (5/12)
Length of Visible Light 15h 11m
Length of Day
14h 12m
Waxing Crescent, 7% of the Moon is Illuminated
May 12
Waxing Crescent
May 17
First Quarter
May 24
Full
May 31
Last Quarter
Jun 8
New

Hourly Weather History & Observations

Time (PDT) Temp. Heat Index Dew Point Humidity Pressure Visibility Wind Dir Wind Speed Gust Speed Precip Events Conditions
12:53 AM 63.0 °F - 54.0 °F 72% 30.05 in 10.0 mi SSE 10.4 mph - N/A   Clear
1:53 AM 64.0 °F - 52.0 °F 65% 30.05 in 10.0 mi SSE 9.2 mph - N/A   Clear
2:53 AM 63.0 °F - 51.1 °F 65% 30.05 in 10.0 mi SSE 9.2 mph - N/A   Clear
3:53 AM 62.1 °F - 51.1 °F 67% 30.04 in 10.0 mi SSE 9.2 mph - N/A   Clear
4:53 AM 61.0 °F - 51.1 °F 70% 30.04 in 10.0 mi South 8.1 mph - N/A   Clear
5:53 AM 60.1 °F - 51.1 °F 72% 30.04 in 10.0 mi South 10.4 mph - N/A   Clear
6:53 AM 60.1 °F - 51.1 °F 72% 30.06 in 10.0 mi South 12.7 mph - N/A   Clear
7:53 AM 63.0 °F - 52.0 °F 67% 30.07 in 10.0 mi South 9.2 mph - N/A   Clear
8:53 AM 70.0 °F - 54.0 °F 57% 30.08 in 10.0 mi SSE 8.1 mph - N/A   Clear
9:53 AM 73.9 °F - 55.0 °F 52% 30.08 in 10.0 mi SSE 8.1 mph - N/A   Clear
10:53 AM 80.1 °F 80.1 °F 55.0 °F 42% 30.08 in 10.0 mi SSE 8.1 mph - N/A   Clear
11:53 AM 84.0 °F 82.5 °F 53.1 °F 34% 30.08 in 10.0 mi South 5.8 mph - N/A   Clear
12:53 PM 88.0 °F 85.9 °F 54.0 °F 31% 30.06 in 10.0 mi SSW 6.9 mph - N/A   Clear
1:53 PM 91.0 °F - 46.0 °F 21% 30.05 in 10.0 mi South 6.9 mph - N/A   Clear
2:53 PM 93.0 °F - 48.9 °F 22% 30.03 in 10.0 mi South 10.4 mph - N/A   Clear
3:53 PM 93.0 °F - 42.1 °F 17% 30.00 in 10.0 mi SW 8.1 mph - N/A   Clear
4:53 PM 91.9 °F - 48.0 °F 22% 29.98 in 10.0 mi South 13.8 mph - N/A   Clear
5:53 PM 91.0 °F - 50.0 °F 24% 29.97 in 10.0 mi South 10.4 mph - N/A   Clear
6:53 PM 86.0 °F 85.0 °F 57.9 °F 38% 29.95 in 10.0 mi South 11.5 mph - N/A   Clear
7:53 PM 79.0 °F - 55.9 °F 45% 29.95 in 10.0 mi South 12.7 mph - N/A   Clear
8:53 PM 73.0 °F - 50.0 °F 44% 29.96 in 10.0 mi South 9.2 mph - N/A   Clear
9:53 PM 69.1 °F - 46.9 °F 45% 29.98 in 10.0 mi South 10.4 mph - N/A   Clear
10:53 PM 66.9 °F - 46.9 °F 49% 29.98 in 10.0 mi SSE 9.2 mph - N/A   Clear
11:53 PM 64.9 °F - 48.0 °F 54% 29.98 in 10.0 mi SSE 9.2 mph - N/A   Clear